This is the latest recevied weather packets stored in our database for station/object PA5MB-15. If no packets are shown the sender has not sent any weather packets the latest 1 day(s).
| Time | Temp. | Humidity | Pressure | Rain* | Wind** | Luminosity | Snow |
|---|---|---|---|---|---|---|---|
| 1777978543 | 12.22° C | 88% | 1012.4 hPa | 0 mm | 1.34 m/s, 11° | 20 W/m² | - |
| 1777978231 | 11.67° C | 88% | 1012.4 hPa | 0 mm | 1.34 m/s, 353° | 20 W/m² | - |
| 1777977943 | 11.67° C | 88% | 1012.4 hPa | 0 mm | 0.89 m/s, 337° | 24 W/m² | - |
| 1777977643 | 11.67° C | 88% | 1012.4 hPa | 0 mm | 1.34 m/s, 351° | 28 W/m² | - |
| 1777977333 | 11.67° C | 88% | 1012.4 hPa | 0 mm | 1.79 m/s, 348° | 25 W/m² | - |
| 1777977031 | 11.67° C | 89% | 1012.4 hPa | 0 mm | 1.79 m/s, 348° | 21 W/m² | - |
| 1777976745 | 11.67° C | 89% | 1012.4 hPa | 0 mm | 1.34 m/s, 2° | 24 W/m² | - |
| 1777976431 | 11.67° C | 89% | 1012.4 hPa | 0 mm | 1.79 m/s, 358° | 24 W/m² | - |
| 1777976130 | 11.67° C | 89% | 1012.5 hPa | 0 mm | 1.34 m/s, 351° | 26 W/m² | - |
| 1777975831 | 11.11° C | 90% | 1012.5 hPa | 0 mm | 1.34 m/s, 3° | 23 W/m² | - |
| 1777975530 | 11.11° C | 90% | 1012.6 hPa | 0 mm | 1.34 m/s, 339° | 18 W/m² | - |
| 1777975231 | 11.11° C | 91% | 1012.5 hPa | 0 mm | 1.34 m/s, 345° | 18 W/m² | - |
| 1777974923 | 11.11° C | 91% | 1012.5 hPa | 0 mm | 1.34 m/s, 0° | 15 W/m² | - |
| 1777974631 | 11.11° C | 91% | 1012.5 hPa | 0 mm | 1.34 m/s, 355° | 14 W/m² | - |
| 1777974331 | 11.11° C | 91% | 1012.5 hPa | 0 mm | 1.34 m/s, 332° | 14 W/m² | - |
| 1777974031 | 11.11° C | 91% | 1012.6 hPa | 0 mm | 1.79 m/s, 8° | 14 W/m² | - |
| 1777973724 | 11.11° C | 91% | 1012.6 hPa | 0 mm | 0.89 m/s, 7° | 16 W/m² | - |
| 1777973431 | 11.11° C | 91% | 1012.6 hPa | 0 mm | 1.79 m/s, 5° | 18 W/m² | - |
| 1777973132 | 11.11° C | 91% | 1012.7 hPa | 0 mm | 1.79 m/s, 4° | 18 W/m² | - |
| 1777972823 | 11.11° C | 91% | 1012.6 hPa | 0 mm | 1.34 m/s, 21° | 26 W/m² | - |
| 1777972531 | 11.11° C | 92% | 1012.7 hPa | 0 mm | 1.34 m/s, 349° | 24 W/m² | - |
| 1777972233 | 10.56° C | 93% | 1012.7 hPa | 0 mm | 1.79 m/s, 354° | 19 W/m² | - |
| 1777971943 | 10.56° C | 93% | 1012.7 hPa | 0 mm | 0.89 m/s, 9° | 17 W/m² | - |
| 1777971631 | 10.56° C | 94% | 1012.7 hPa | 0 mm | 1.34 m/s, 3° | 12 W/m² | - |
| 1777971333 | 10.56° C | 94% | 1012.7 hPa | 0 mm | 1.34 m/s, 351° | 11 W/m² | - |
* Rain latest hour (hover to see other rain measurements)
** Current wind speed in m/s (hover to see current wind gust speed)